timestamp,wind_dir_avg,wind_spd_avg,wind_spd_max_dir,wind_spd_gust,battery_voltage,lat,long
2021-09-09 00:04:00+00:00,249.0,3.85,250.0,4.52,12.65,47.59359,-54.27349
2021-09-09 00:14:01+00:00,257.0,3.55,258.0,4.3,12.65,47.59359,-54.27349
2021-09-09 00:24:01+00:00,277.0,2.63,277.0,3.07,12.65,47.59359,-54.27349
2021-09-09 00:34:01+00:00,260.0,1.81,261.0,2.31,12.65,47.59359,-54.27349
2021-09-09 00:44:01+00:00,274.0,2.25,275.0,2.6,12.65,47.59359,-54.27349
2021-09-09 00:54:01+00:00,328.0,1.25,323.0,1.75,12.65,47.59359,-54.27349
2021-09-09 01:04:01+00:00,199.0,0.92,220.0,1.19,12.65,47.59359,-54.27349
2021-09-09 01:14:01+00:00,252.0,3.75,253.0,4.19,12.65,47.59359,-54.27349
2021-09-09 01:24:01+00:00,257.0,3.3,266.0,3.78,12.65,47.59359,-54.27349
2021-09-09 01:34:01+00:00,281.0,3.8,277.0,4.36,12.65,47.59359,-54.27349
2021-09-09 01:44:01+00:00,293.0,3.06,301.0,3.74,12.65,47.59359,-54.27349
2021-09-09 01:54:01+00:00,286.0,2.91,286.0,3.2,12.65,47.59359,-54.27349
2021-09-09 02:04:01+00:00,288.0,2.54,292.0,2.99,12.65,47.59359,-54.27349
2021-09-09 02:14:00+00:00,287.0,2.62,292.0,2.92,12.65,47.59359,-54.27349
2021-09-09 02:24:00+00:00,289.0,2.83,287.0,3.14,12.65,47.59359,-54.27349
2021-09-09 02:34:00+00:00,321.0,2.72,319.0,2.98,12.65,47.59359,-54.27349
2021-09-09 02:44:00+00:00,344.0,2.36,342.0,2.72,12.65,47.59359,-54.27349
2021-09-09 02:54:00+00:00,7.0,1.63,351.0,2.29,12.65,47.59359,-54.27349
2021-09-09 03:04:00+00:00,344.0,5.41,342.0,5.95,12.65,47.59359,-54.27349
2021-09-09 03:14:01+00:00,18.0,4.31,22.0,4.72,12.65,47.59359,-54.27349
2021-09-09 03:24:01+00:00,6.0,2.78,359.0,3.27,12.65,47.59359,-54.27349
2021-09-09 03:34:01+00:00,356.0,2.91,356.0,3.19,12.65,47.59359,-54.27349
2021-09-09 03:44:01+00:00,347.0,3.39,347.0,3.65,12.65,47.59359,-54.27349
2021-09-09 03:54:01+00:00,345.0,3.54,348.0,3.88,12.65,47.59359,-54.27349
2021-09-09 04:04:01+00:00,357.0,4.03,355.0,4.32,12.65,47.59359,-54.27349
2021-09-09 04:14:01+00:00,357.0,3.72,358.0,4.03,12.57,47.59359,-54.27349
2021-09-09 04:24:01+00:00,358.0,3.0,357.0,3.39,12.57,47.59359,-54.27349
2021-09-09 04:34:01+00:00,7.0,2.36,358.0,2.83,12.57,47.59359,-54.27349
2021-09-09 04:44:01+00:00,5.0,2.97,5.0,3.43,12.57,47.59359,-54.27349
2021-09-09 04:54:01+00:00,11.0,2.32,12.0,2.67,12.57,47.59359,-54.27349
2021-09-09 05:04:01+00:00,13.0,3.01,13.0,3.33,12.57,47.59359,-54.27349
2021-09-09 05:14:00+00:00,5.0,3.23,6.0,3.65,12.57,47.59359,-54.27349
2021-09-09 05:24:00+00:00,11.0,2.68,11.0,3.17,12.57,47.59359,-54.27349
2021-09-09 05:34:00+00:00,8.0,2.8,6.0,3.1,12.57,47.59359,-54.27349
2021-09-09 05:44:00+00:00,10.0,2.39,16.0,2.85,12.57,47.59359,-54.27349
2021-09-09 05:54:00+00:00,6.0,2.83,7.0,3.16,12.57,47.59359,-54.27349
2021-09-09 06:04:00+00:00,11.0,2.5,13.0,2.95,12.57,47.59359,-54.27349
2021-09-09 06:14:01+00:00,3.0,2.82,3.0,2.95,12.57,47.59359,-54.27349
2021-09-09 06:24:01+00:00,7.0,2.43,6.0,2.66,12.57,47.59359,-54.27349
2021-09-09 06:34:01+00:00,2.0,2.48,2.0,2.65,12.57,47.59359,-54.27349
2021-09-09 06:44:01+00:00,10.0,2.62,14.0,3.03,12.57,47.59359,-54.27349
2021-09-09 06:54:01+00:00,4.0,2.67,7.0,2.91,12.57,47.59359,-54.27349
2021-09-09 07:04:01+00:00,3.0,2.4,5.0,2.56,12.57,47.59359,-54.27349
2021-09-09 07:14:01+00:00,7.0,2.37,7.0,2.58,12.57,47.59359,-54.27349
2021-09-09 07:24:01+00:00,8.0,2.81,10.0,3.19,12.57,47.59359,-54.27349
2021-09-09 07:34:01+00:00,11.0,2.8,15.0,3.11,12.57,47.59359,-54.27349
2021-09-09 07:44:01+00:00,18.0,2.85,18.0,3.24,12.57,47.59359,-54.27349
2021-09-09 07:54:01+00:00,0.0,2.8,357.0,3.1,12.57,47.59359,-54.27349
2021-09-09 08:04:01+00:00,9.0,2.26,15.0,2.63,12.57,47.59359,-54.27349
2021-09-09 08:14:00+00:00,10.0,2.42,10.0,2.7,12.49,47.59359,-54.27349
2021-09-09 08:24:00+00:00,10.0,2.72,13.0,2.94,12.49,47.59359,-54.27349
2021-09-09 08:34:00+00:00,19.0,2.92,22.0,3.23,12.49,47.59359,-54.27349
2021-09-09 08:44:00+00:00,25.0,2.5,26.0,2.89,12.49,47.59359,-54.27349
2021-09-09 08:54:00+00:00,18.0,2.54,16.0,2.79,12.49,47.59359,-54.27349
2021-09-09 09:04:00+00:00,87.0,1.86,85.0,2.34,12.49,47.59359,-54.27349
2021-09-09 09:14:01+00:00,104.0,0.71,96.0,0.94,12.49,47.59359,-54.27349
2021-09-09 09:24:01+00:00,117.0,0.47,118.0,0.57,12.49,47.59359,-54.27349
2021-09-09 09:34:01+00:00,132.0,1.37,139.0,1.86,12.49,47.59359,-54.27349
2021-09-09 09:44:01+00:00,134.0,1.78,136.0,2.14,12.49,47.59359,-54.27349
2021-09-09 09:54:01+00:00,138.0,1.34,147.0,1.95,12.49,47.59359,-54.27349
2021-09-09 10:04:01+00:00,123.0,1.31,123.0,1.63,12.49,47.59359,-54.27349
2021-09-09 10:14:01+00:00,139.0,1.13,145.0,1.61,12.57,47.59359,-54.27349
2021-09-09 10:24:01+00:00,162.0,0.82,165.0,1.49,12.57,47.59359,-54.27349
2021-09-09 10:34:01+00:00,187.0,0.38,207.0,0.57,12.57,47.59359,-54.27349
2021-09-09 10:44:01+00:00,171.0,0.93,165.0,1.33,12.57,47.59359,-54.27349
2021-09-09 10:54:01+00:00,129.0,0.88,130.0,1.19,12.57,47.59359,-54.27349
2021-09-09 11:04:01+00:00,133.0,0.46,154.0,0.8,12.57,47.59359,-54.27349
2021-09-09 11:14:01+00:00,118.0,0.53,110.0,0.8,13.29,47.59359,-54.27349
2021-09-09 11:24:01+00:00,97.0,0.24,105.0,0.48,13.29,47.59359,-54.27349
2021-09-09 11:34:01+00:00,157.0,0.42,163.0,1.4,13.29,47.59359,-54.27349
2021-09-09 11:44:01+00:00,150.0,2.68,150.0,3.37,13.29,47.59359,-54.27349
2021-09-09 11:54:01+00:00,153.0,2.22,155.0,2.62,13.29,47.59359,-54.27349
2021-09-09 12:04:01+00:00,160.0,0.76,167.0,1.12,13.29,47.59359,-54.27349
2021-09-09 12:14:01+00:00,209.0,2.23,199.0,2.9,13.44,47.59359,-54.27349
2021-09-09 12:24:01+00:00,215.0,2.17,214.0,2.51,13.44,47.59359,-54.27349
2021-09-09 12:34:01+00:00,204.0,0.86,201.0,1.12,13.44,47.59359,-54.27349
2021-09-09 12:44:01+00:00,235.0,1.89,231.0,2.38,13.44,47.59359,-54.27349
2021-09-09 12:54:01+00:00,249.0,1.73,256.0,2.01,13.44,47.59359,-54.27349
2021-09-09 13:04:01+00:00,248.0,2.05,251.0,2.4,13.44,47.59359,-54.27349
2021-09-09 13:14:01+00:00,248.0,1.06,248.0,1.34,13.76,47.59359,-54.27349
2021-09-09 13:24:01+00:00,206.0,0.49,185.0,0.82,13.76,47.59359,-54.27349
2021-09-09 13:34:01+00:00,263.0,1.58,262.0,1.79,13.76,47.59359,-54.27349
2021-09-09 13:44:01+00:00,277.0,1.85,275.0,2.1,13.76,47.59359,-54.27349
2021-09-09 13:54:01+00:00,273.0,1.69,275.0,1.92,13.76,47.59359,-54.27349
2021-09-09 14:04:01+00:00,262.0,1.03,257.0,1.36,13.76,47.59359,-54.27349
2021-09-09 14:14:01+00:00,254.0,2.31,257.0,2.81,13.84,47.59359,-54.27349
2021-09-09 14:24:01+00:00,247.0,2.21,251.0,2.71,13.84,47.59359,-54.27349
2021-09-09 14:34:01+00:00,246.0,1.25,252.0,1.5,13.84,47.59359,-54.27349
2021-09-09 14:44:01+00:00,258.0,1.98,263.0,2.34,13.84,47.59359,-54.27349
2021-09-09 14:54:01+00:00,237.0,1.68,238.0,1.99,13.84,47.59359,-54.27349
2021-09-09 15:04:01+00:00,231.0,2.82,232.0,3.54,13.84,47.59359,-54.27349
2021-09-09 15:14:01+00:00,222.0,3.82,227.0,4.62,13.6,47.59359,-54.27349
2021-09-09 15:24:01+00:00,217.0,6.2,216.0,7.16,13.6,47.59359,-54.27349
2021-09-09 15:34:01+00:00,218.0,6.59,218.0,7.19,13.6,47.59359,-54.27349
2021-09-09 15:44:01+00:00,219.0,7.51,222.0,8.53,13.6,47.59359,-54.27349
2021-09-09 15:54:01+00:00,222.0,7.91,223.0,8.46,13.6,47.59359,-54.27349
2021-09-09 16:04:01+00:00,218.0,6.84,213.0,8.01,13.6,47.59359,-54.27349
2021-09-09 16:14:01+00:00,215.0,8.48,217.0,9.18,14.24,47.59359,-54.27349
2021-09-09 16:24:01+00:00,206.0,8.84,213.0,9.68,14.24,47.59359,-54.27349
2021-09-09 16:34:01+00:00,212.0,9.07,215.0,10.04,14.24,47.59359,-54.27349
2021-09-09 16:44:01+00:00,215.0,9.05,215.0,10.24,14.24,47.59359,-54.27349
2021-09-09 16:54:01+00:00,215.0,9.91,216.0,10.74,14.24,47.59359,-54.27349
2021-09-09 17:04:01+00:00,207.0,9.73,210.0,10.56,14.24,47.59359,-54.27349
2021-09-09 17:14:01+00:00,210.0,9.48,213.0,10.5,14.0,47.59359,-54.27349
2021-09-09 17:24:01+00:00,214.0,8.56,218.0,9.59,14.0,47.59359,-54.27349
2021-09-09 17:34:01+00:00,208.0,8.38,208.0,9.26,14.0,47.59359,-54.27349
2021-09-09 17:44:01+00:00,216.0,8.38,216.0,9.06,14.0,47.59359,-54.27349
2021-09-09 17:54:01+00:00,210.0,7.54,214.0,8.29,14.0,47.59359,-54.27349
2021-09-09 18:04:01+00:00,219.0,8.52,219.0,9.13,14.0,47.59359,-54.27349
2021-09-09 18:14:01+00:00,211.0,8.22,210.0,8.77,13.92,47.59359,-54.27349
2021-09-09 18:24:01+00:00,207.0,7.55,206.0,9.81,13.92,47.59359,-54.27349
2021-09-09 18:34:01+00:00,211.0,7.87,206.0,8.71,13.92,47.59359,-54.27349
2021-09-09 18:44:01+00:00,212.0,9.49,209.0,10.36,13.92,47.59359,-54.27349
2021-09-09 18:54:01+00:00,211.0,9.02,206.0,10.17,13.92,47.59359,-54.27349
2021-09-09 19:04:01+00:00,216.0,9.6,217.0,10.75,13.92,47.59359,-54.27349
2021-09-09 19:14:01+00:00,212.0,8.71,209.0,9.87,13.92,47.59359,-54.27349
2021-09-09 19:24:01+00:00,216.0,9.3,216.0,11.12,13.92,47.59359,-54.27349
2021-09-09 19:34:01+00:00,217.0,8.25,218.0,9.37,13.92,47.59359,-54.27349
2021-09-09 19:44:01+00:00,214.0,8.12,218.0,9.24,13.92,47.59359,-54.27349
2021-09-09 19:54:01+00:00,218.0,7.89,226.0,8.9,13.92,47.59359,-54.27349
2021-09-09 20:04:01+00:00,220.0,7.67,221.0,8.47,13.92,47.59359,-54.27349
2021-09-09 20:14:01+00:00,213.0,7.12,214.0,7.95,13.84,47.59359,-54.27349
2021-09-09 20:24:01+00:00,210.0,7.61,208.0,8.3,13.84,47.59359,-54.27349
2021-09-09 20:34:01+00:00,216.0,7.99,220.0,8.78,13.84,47.59359,-54.27349
2021-09-09 20:44:01+00:00,214.0,7.59,211.0,8.45,13.84,47.59359,-54.27349
2021-09-09 20:54:01+00:00,218.0,8.92,219.0,10.28,13.84,47.59359,-54.27349
2021-09-09 21:04:01+00:00,217.0,8.64,215.0,9.56,13.84,47.59359,-54.27349
2021-09-09 21:14:01+00:00,219.0,8.27,225.0,9.29,13.44,47.59359,-54.27349
2021-09-09 21:24:01+00:00,213.0,7.85,216.0,9.24,13.44,47.59359,-54.27349
2021-09-09 21:34:01+00:00,216.0,7.78,216.0,9.04,13.44,47.59359,-54.27349
2021-09-09 21:44:01+00:00,219.0,7.38,220.0,8.41,13.44,47.59359,-54.27349
2021-09-09 21:54:01+00:00,216.0,6.96,210.0,8.47,13.44,47.59359,-54.27349
2021-09-09 22:04:01+00:00,221.0,6.65,220.0,8.04,13.44,47.59359,-54.27349
2021-09-09 22:14:01+00:00,216.0,5.81,222.0,6.86,12.89,47.59359,-54.27349
2021-09-09 22:24:01+00:00,217.0,7.07,222.0,8.13,12.89,47.59359,-54.27349
2021-09-09 22:34:01+00:00,217.0,8.39,220.0,9.49,12.89,47.59359,-54.27349
2021-09-09 22:44:01+00:00,215.0,6.95,219.0,8.04,12.89,47.59359,-54.27349
2021-09-09 22:54:01+00:00,210.0,7.78,207.0,8.82,12.89,47.59359,-54.27349
2021-09-09 23:04:01+00:00,215.0,7.6,221.0,8.64,12.89,47.59359,-54.27349
2021-09-09 23:14:01+00:00,212.0,6.84,213.0,7.38,12.65,47.59359,-54.27349
2021-09-09 23:24:01+00:00,212.0,7.54,210.0,8.98,12.65,47.59359,-54.27349
2021-09-09 23:34:01+00:00,214.0,5.84,216.0,6.78,12.65,47.59359,-54.27349
2021-09-09 23:44:01+00:00,213.0,7.16,217.0,8.04,12.65,47.59359,-54.27349
2021-09-09 23:54:01+00:00,212.0,5.96,217.0,6.67,12.65,47.59359,-54.27349
